Location: Unspecified
(0.0000°N, 0.0000°E)
Time: 03:09:54
(UTC+00:00)

Hubble Space Telescope - Pass Details

Date: 24 February 2021
Orbit: 536 x 539 km, 28.5° (Epoch: 24 February)

Event Time Altitude Azimuth Distance (km) Brightness Sun altitude
Rises 20:15:07 0° 252° (WSW) 2,668 5.5 -30.1°
Reaches altitude 10° 20:17:27 10° 259° (W) 1,777 4.3 -30.6°
Enters shadow 20:19:20 24° 274° (W) 1,137 3.0 -31.1°
